| time (UTC) | temp F | wind direction | speed MPH | gust MPH | rain 1hr in | rain 24hr in | rain mn in | humidity % | barometer mb |
| 20260505052515 | 67 | 211 | 1.0 | 7.0 | 0.00 | 0.00 | 0.00 | 63 | 1007.1 |
| 20260505051515 | 67 | 211 | 2.0 | 7.0 | 0.00 | 0.00 | 0.00 | 63 | 1007.2 |
| 20260505050516 | 67 | 207 | 3.0 | 11.0 | 0.00 | 0.00 | 0.00 | 63 | 1007.2 |
| 20260505041516 | 66 | 217 | 1.0 | 9.0 | 0.00 | 0.00 | 0.00 | 63 | 1007.1 |
| 20260505040516 | 66 | 183 | 1.0 | 5.0 | 0.00 | 0.00 | 0.00 | 63 | 1007.2 |
| 20260505035514 | 66 | 178 | 3.0 | 7.0 | 0.00 | 0.00 | 0.00 | 64 | 1007.3 |
| 20260505034515 | 66 | 148 | 1.0 | 3.0 | 0.00 | 0.00 | 0.00 | 65 | 1007.2 |
| 20260505033515 | 65 | 105 | 2.0 | 5.0 | 0.00 | 0.00 | 0.00 | 66 | 1007.2 |
| 20260505032514 | 65 | 161 | 1.0 | 3.0 | 0.00 | 0.00 | 0.00 | 66 | 1007.1 |
| 20260505031515 | 65 | 163 | 1.0 | 5.0 | 0.00 | 0.00 | 0.00 | 65 | 1007.1 |
| 20260505030517 | 64 | 135 | 2.0 | 5.0 | 0.00 | 0.00 | 0.00 | 66 | 1007.1 |
| 20260505025517 | 64 | 125 | 1.0 | 3.0 | 0.00 | 0.00 | 0.00 | 65 | 1007.0 |
| 20260505024517 | 64 | 148 | 1.0 | 3.0 | 0.00 | 0.00 | 0.00 | 65 | 1007.0 |
| 20260505023516 | 65 | 102 | 1.0 | 3.0 | 0.00 | 0.00 | 0.00 | 64 | 1007.1 |
| 20260505022516 | 65 | 184 | 1.0 | 2.0 | 0.00 | 0.00 | 0.00 | 63 | 1007.2 |
| 20260505021515 | 66 | 166 | 1.0 | 4.0 | 0.00 | 0.00 | 0.00 | 62 | 1007.3 |
| 20260505020517 | 66 | 161 | 1.0 | 4.0 | 0.00 | 0.00 | 0.00 | 62 | 1007.2 |
| 20260505015517 | 66 | 213 | 1.0 | 3.0 | 0.00 | 0.00 | 0.00 | 62 | 1007.2 |
| 20260505014516 | 66 | 107 | 1.0 | 5.0 | 0.00 | 0.00 | 0.00 | 62 | 1007.1 |
| 20260505013537 | 67 | 126 | 0.0 | 4.0 | 0.00 | 0.00 | 0.00 | 60 | 1007.0 |
| 20260505012517 | 67 | 226 | 2.0 | 8.0 | 0.00 | 0.00 | 0.00 | 60 | 1006.9 |
| 20260505011517 | 67 | 119 | 0.0 | 5.0 | 0.00 | 0.00 | 0.00 | 60 | 1006.9 |
| 20260505010537 | 67 | 119 | 1.0 | 4.0 | 0.00 | 0.00 | 0.00 | 59 | 1006.8 |
| 20260505005517 | 67 | 151 | 1.0 | 4.0 | 0.00 | 0.00 | 0.00 | 58 | 1006.7 |
| 20260505004517 | 68 | 202 | 1.0 | 7.0 | 0.00 | 0.00 | 0.00 | 57 | 1006.7 |
| 20260505003517 | 68 | 79 | 2.0 | 7.0 | 0.00 | 0.00 | 0.00 | 57 | 1006.6 |
| 20260505002517 | 68 | 164 | 2.0 | 6.0 | 0.00 | 0.00 | 0.00 | 56 | 1006.6 |
| 20260505001516 | 69 | 199 | 1.0 | 7.0 | 0.00 | 0.00 | 0.00 | 55 | 1006.5 |
| 20260505000517 | 69 | 195 | 3.0 | 13.0 | 0.00 | 0.00 | 0.00 | 55 | 1006.6 |
| 20260504235517 | 70 | 248 | 2.0 | 13.0 | 0.00 | 0.00 | 0.00 | 54 | 1006.6 |
| 20260504234517 | 70 | 254 | 4.0 | 11.0 | 0.00 | 0.00 | 0.00 | 53 | 1006.5 |
| 20260504233517 | 71 | 186 | 3.0 | 8.0 | 0.00 | 0.00 | 0.00 | 53 | 1006.3 |
| 20260504232517 | 71 | 239 | 3.0 | 9.0 | 0.00 | 0.00 | 0.00 | 53 | 1006.4 |
| 20260504231517 | 71 | 200 | 3.0 | 9.0 | 0.00 | 0.00 | 0.00 | 52 | 1006.6 |
| 20260504230517 | 71 | 240 | 3.0 | 10.0 | 0.00 | 0.00 | 0.00 | 52 | 1006.6 |
| 20260504225516 | 72 | 204 | 3.0 | 10.0 | 0.00 | 0.00 | 0.00 | 51 | 1006.7 |
| 20260504224516 | 72 | 223 | 3.0 | 8.0 | 0.00 | 0.00 | 0.00 | 52 | 1006.8 |
| 20260504223516 | 72 | 213 | 4.0 | 12.0 | 0.00 | 0.00 | 0.00 | 51 | 1006.7 |
| 20260504222537 | 73 | 142 | 4.0 | 12.0 | 0.00 | 0.00 | 0.00 | 51 | 1006.7 |
| 20260504221517 | 73 | 216 | 5.0 | 16.0 | 0.00 | 0.00 | 0.00 | 51 | 1006.9 |
| 20260504220517 | 73 | 231 | 6.0 | 21.0 | 0.00 | 0.00 | 0.00 | 50 | 1007.0 |
| 20260504215537 | 74 | 265 | 5.0 | 12.0 | 0.00 | 0.00 | 0.00 | 50 | 1007.0 |
| 20260504214517 | 74 | 237 | 4.0 | 14.0 | 0.00 | 0.00 | 0.00 | 50 | 1007.1 |
| 20260504213537 | 74 | 189 | 4.0 | 13.0 | 0.00 | 0.00 | 0.00 | 49 | 1007.2 |
| 20260504212516 | 74 | 253 | 4.0 | 14.0 | 0.00 | 0.00 | 0.00 | 50 | 1007.1 |
| 20260504211517 | 74 | 233 | 4.0 | 11.0 | 0.00 | 0.00 | 0.00 | 51 | 1007.1 |
| 20260504210536 | 73 | 257 | 4.0 | 11.0 | 0.00 | 0.00 | 0.00 | 51 | 1007.0 |
| 20260504205517 | 73 | 238 | 4.0 | 7.0 | 0.00 | 0.00 | 0.00 | 50 | 1007.0 |
| 20260504204516 | 74 | 249 | 5.0 | 13.0 | 0.00 | 0.00 | 0.00 | 49 | 1007.0 |
| 20260504203517 | 75 | 230 | 4.0 | 15.0 | 0.00 | 0.00 | 0.00 | 49 | 1007.1 |
| 20260504202516 | 74 | 233 | 4.0 | 15.0 | 0.00 | 0.00 | 0.00 | 50 | 1007.1 |
| 20260504201517 | 74 | 230 | 4.0 | 10.0 | 0.00 | 0.00 | 0.00 | 50 | 1007.1 |
| 20260504200517 | 73 | 263 | 5.0 | 13.0 | 0.00 | 0.00 | 0.00 | 51 | 1007.1 |
| 20260504195516 | 73 | 235 | 2.0 | 10.0 | 0.00 | 0.00 | 0.00 | 50 | 1007.3 |
| 20260504194517 | 74 | 230 | 4.0 | 11.0 | 0.00 | 0.00 | 0.00 | 50 | 1007.5 |
| 20260504193517 | 73 | 252 | 3.0 | 13.0 | 0.00 | 0.00 | 0.00 | 51 | 1007.8 |
| 20260504192517 | 73 | 218 | 4.0 | 12.0 | 0.00 | 0.00 | 0.00 | 51 | 1007.8 |
| 20260504191517 | 73 | 211 | 6.0 | 14.0 | 0.00 | 0.00 | 0.00 | 50 | 1008.0 |
| 20260504190517 | 73 | 234 | 4.0 | 10.0 | 0.00 | 0.00 | 0.00 | 51 | 1008.1 |
| 20260504185557 | 72 | 254 | 4.0 | 10.0 | 0.00 | 0.00 | 0.00 | 52 | 1008.0 |
| 20260504184516 | 72 | 240 | 4.0 | 9.0 | 0.00 | 0.00 | 0.00 | 53 | 1008.0 |
| 20260504183537 | 72 | 235 | 4.0 | 13.0 | 0.00 | 0.00 | 0.00 | 52 | 1008.0 |
| 20260504182516 | 72 | 223 | 5.0 | 16.0 | 0.00 | 0.00 | 0.00 | 51 | 1008.3 |
| 20260504181516 | 71 | 228 | 4.0 | 12.0 | 0.00 | 0.00 | 0.00 | 52 | 1008.3 |
| 20260504180516 | 71 | 244 | 4.0 | 10.0 | 0.00 | 0.00 | 0.00 | 51 | 1008.4 |
| 20260504175516 | 71 | 171 | 4.0 | 14.0 | 0.00 | 0.00 | 0.00 | 51 | 1008.5 |
| 20260504174516 | 70 | 217 | 4.0 | 13.0 | 0.00 | 0.00 | 0.00 | 52 | 1008.5 |
| 20260504173516 | 71 | 250 | 5.0 | 11.0 | 0.00 | 0.00 | 0.00 | 51 | 1008.7 |
| 20260504172517 | 70 | 264 | 4.0 | 12.0 | 0.00 | 0.00 | 0.00 | 51 | 1008.7 |
| 20260504171517 | 70 | 222 | 4.0 | 13.0 | 0.00 | 0.00 | 0.00 | 51 | 1008.9 |
| 20260504170516 | 70 | 252 | 5.0 | 15.0 | 0.00 | 0.00 | 0.00 | 50 | 1008.9 |
| 20260504150516 | 64 | 241 | 3.0 | 12.0 | 0.00 | 0.00 | 0.00 | 55 | 1010.3 |
| 20260504140516 | 60 | 243 | 3.0 | 7.0 | 0.00 | 0.00 | 0.00 | 58 | 1010.7 |
| 20260504130516 | 57 | 219 | 2.0 | 7.0 | 0.00 | 0.00 | 0.00 | 60 | 1010.8 |
| 20260504110516 | 51 | 244 | 2.0 | 8.0 | 0.00 | 0.00 | 0.00 | 63 | 1010.6 |
| 20260504100516 | 52 | 97 | 2.0 | 7.0 | 0.00 | 0.00 | 0.00 | 60 | 1010.9 |
| 20260504081516 | 53 | 74 | 0.0 | 3.0 | 0.00 | 0.00 | 0.00 | 58 | 1011.8 |
| 20260504080516 | 53 | 228 | 1.0 | 4.0 | 0.00 | 0.00 | 0.00 | 57 | 1012.1 |